CCDAZ SCPC-SCEL

Flight info

Callsign CCDAZ
Flight time 1h 23m
Altitude 43000
Route ENSER UQ802 EROLO EROLO8A
Aircraft C25B/M-SDE2E3FGHRWXY/LB1

Departure

Time 2026-04-23 17:29
Airport Pucón Airport (SCPC)

Arrival

Time 2026-04-23 18:52
Airport Comodoro Arturo Merino Benítez International Airport (SCEL)
Time Latitude Longitude Altitude Speed Heading
2026-04-23 17:21 -39.29009 -71.92126 852 ft 0 kts
2026-04-23 17:27 -39.29006 -71.92153 851 ft 7 kts 251°
2026-04-23 17:27 -39.29052 -71.92186 841 ft 9 kts 195°
2026-04-23 17:27 -39.29119 -71.92207 850 ft 9 kts 173°
2026-04-23 17:28 -39.29134 -71.92188 851 ft 0 kts 101°
2026-04-23 17:28 -39.29209 -71.91715 880 ft 116 kts 102°
2026-04-23 17:29 -39.29440 -71.90378 1511 ft 179 kts 102°
2026-04-23 17:29 -39.29724 -71.88673 2664 ft 210 kts 101°
2026-04-23 17:29 -39.30350 -71.84566 4445 ft 250 kts 102°
2026-04-23 17:30 -39.30471 -71.82231 4933 ft 271 kts 80°
2026-04-23 17:30 -39.28059 -71.78800 6670 ft 273 kts 15°
2026-04-23 17:30 -39.26184 -71.78735 7503 ft 272 kts 346°
2026-04-23 17:31 -39.24374 -71.79474 8267 ft 275 kts 339°
2026-04-23 17:31 -39.22567 -71.80319 9049 ft 278 kts 337°
2026-04-23 17:31 -39.20751 -71.81214 9783 ft 281 kts 337°
2026-04-23 17:31 -39.18852 -71.81942 10483 ft 288 kts 344°
2026-04-23 17:32 -39.16872 -71.82394 11169 ft 290 kts 345°
2026-04-23 17:32 -39.14924 -71.82958 11856 ft 292 kts 339°
2026-04-23 17:32 -39.12919 -71.83626 12483 ft 295 kts 339°
2026-04-23 17:32 -39.10935 -71.84246 13094 ft 298 kts 339°
2026-04-23 17:33 -39.08912 -71.84876 13750 ft 301 kts 339°
2026-04-23 17:33 -39.06866 -71.85511 14385 ft 303 kts 340°
2026-04-23 17:33 -39.04811 -71.86148 14986 ft 304 kts 340°
2026-04-23 17:33 -39.02740 -71.86801 15569 ft 307 kts 340°
2026-04-23 17:34 -39.00651 -71.87441 16145 ft 310 kts 340°
2026-04-23 17:34 -38.98545 -71.88102 16698 ft 313 kts 339°
2026-04-23 17:34 -38.94287 -71.89419 17751 ft 317 kts 340°
2026-04-23 17:35 -38.92133 -71.90090 18300 ft 319 kts 340°
2026-04-23 17:35 -38.87776 -71.91444 19229 ft 325 kts 340°
2026-04-23 17:35 -38.85565 -71.92125 19703 ft 328 kts 341°
2026-04-23 17:36 -38.83335 -71.92819 20143 ft 331 kts 340°
2026-04-23 17:36 -38.81087 -71.93511 20586 ft 333 kts 341°
2026-04-23 17:36 -38.78823 -71.94208 20983 ft 336 kts 341°
2026-04-23 17:36 -38.76542 -71.94914 21380 ft 339 kts 341°
2026-04-23 17:37 -38.74270 -71.95620 21763 ft 342 kts 341°
2026-04-23 17:37 -38.71948 -71.96330 22153 ft 344 kts 341°
2026-04-23 17:37 -38.67253 -71.97777 22897 ft 350 kts 341°
2026-04-23 17:38 -38.64881 -71.98512 23269 ft 352 kts 342°
2026-04-23 17:38 -38.62486 -71.99248 23618 ft 355 kts 341°
2026-04-23 17:38 -38.60079 -71.99991 23965 ft 357 kts 342°
2026-04-23 17:38 -38.57652 -72.00730 24294 ft 360 kts 341°
2026-04-23 17:39 -38.55216 -72.01484 24628 ft 361 kts 342°
2026-04-23 17:39 -38.52768 -72.02230 24976 ft 363 kts 342°
2026-04-23 17:39 -38.50310 -72.02988 25356 ft 363 kts 342°
2026-04-23 17:39 -38.47859 -72.03732 25813 ft 361 kts 342°
2026-04-23 17:40 -38.45421 -72.04484 26262 ft 359 kts 342°
2026-04-23 17:40 -38.42991 -72.05226 26725 ft 358 kts 342°
2026-04-23 17:40 -38.40572 -72.05966 27199 ft 357 kts 342°
2026-04-23 17:40 -38.38163 -72.06700 27682 ft 355 kts 342°
2026-04-23 17:41 -38.35770 -72.07432 28200 ft 353 kts 342°
2026-04-23 17:41 -38.31018 -72.08884 29255 ft 349 kts 342°
2026-04-23 17:41 -38.28662 -72.09596 29796 ft 347 kts 342°
2026-04-23 17:42 -38.24031 -72.11007 30885 ft 342 kts 342°
2026-04-23 17:42 -38.21722 -72.11712 31440 ft 340 kts 342°
2026-04-23 17:42 -38.19422 -72.12409 31991 ft 338 kts 342°
2026-04-23 17:43 -38.17138 -72.13107 32557 ft 336 kts 342°
2026-04-23 17:43 -38.14870 -72.13790 33121 ft 334 kts 342°
2026-04-23 17:43 -38.12620 -72.14475 33693 ft 331 kts 342°
2026-04-23 17:43 -38.10385 -72.15152 34244 ft 329 kts 342°
2026-04-23 17:44 -38.08162 -72.15825 34787 ft 328 kts 342°
2026-04-23 17:44 -38.05949 -72.16497 35305 ft 327 kts 341°
2026-04-23 17:44 -38.01523 -72.17834 36281 ft 326 kts 341°
2026-04-23 17:45 -37.99315 -72.18501 36744 ft 326 kts 341°
2026-04-23 17:45 -37.94909 -72.19830 37757 ft 323 kts 341°
2026-04-23 17:45 -37.92731 -72.20487 38310 ft 321 kts 340°
2026-04-23 17:46 -37.88402 -72.21795 39301 ft 320 kts 340°
2026-04-23 17:46 -37.86235 -72.22447 39748 ft 320 kts 340°
2026-04-23 17:46 -37.84071 -72.23099 40186 ft 320 kts 340°
2026-04-23 17:47 -37.81903 -72.23750 40588 ft 320 kts 340°
2026-04-23 17:47 -37.79733 -72.24402 40990 ft 320 kts 340°
2026-04-23 17:47 -37.75391 -72.25706 41720 ft 321 kts 339°
2026-04-23 17:48 -37.73246 -72.26349 42065 ft 321 kts 339°
2026-04-23 17:48 -37.71070 -72.27002 42398 ft 321 kts 339°
2026-04-23 17:48 -37.68896 -72.27653 42721 ft 321 kts 339°
2026-04-23 17:48 -37.66706 -72.28256 43024 ft 325 kts 344°
2026-04-23 17:49 -37.64422 -72.28443 43279 ft 334 kts 352°
2026-04-23 17:49 -37.62049 -72.28150 43280 ft 349 kts
2026-04-23 17:49 -37.59660 -72.27436 43283 ft 354 kts
2026-04-23 17:50 -37.54863 -72.25970 43292 ft 355 kts
2026-04-23 17:50 -37.47616 -72.23759 43304 ft 358 kts
2026-04-23 17:51 -37.42756 -72.22280 43302 ft 360 kts
2026-04-23 17:52 -37.35462 -72.20062 43293 ft 362 kts
2026-04-23 17:52 -37.28092 -72.17826 43293 ft 364 kts
2026-04-23 17:53 -37.20693 -72.15586 43294 ft 365 kts
2026-04-23 17:54 -37.15744 -72.14089 43285 ft 366 kts
2026-04-23 17:54 -37.08299 -72.11843 43274 ft 367 kts
2026-04-23 17:55 -37.00837 -72.09594 43275 ft 368 kts
2026-04-23 17:56 -36.95857 -72.08098 43267 ft 368 kts
2026-04-23 17:56 -36.88405 -72.05858 43256 ft 369 kts
2026-04-23 17:57 -36.83410 -72.04363 43258 ft 369 kts
2026-04-23 17:58 -36.75899 -72.02115 43247 ft 370 kts
2026-04-23 17:58 -36.70897 -72.00620 43248 ft 370 kts
2026-04-23 17:59 -36.65895 -71.99129 43248 ft 370 kts
2026-04-23 17:59 -36.60894 -71.97641 43248 ft 370 kts
2026-04-23 18:00 -36.55895 -71.96151 43249 ft 370 kts
2026-04-23 18:00 -36.50922 -71.94674 43249 ft 369 kts
2026-04-23 18:01 -36.45924 -71.93190 43250 ft 369 kts
2026-04-23 18:01 -36.40925 -71.91711 43249 ft 369 kts
2026-04-23 18:02 -36.36780 -71.90481 43228 ft 362 kts
2026-04-23 18:02 -36.33616 -71.89529 43223 ft 338 kts
2026-04-23 18:02 -36.31383 -71.88875 43221 ft 322 kts
2026-04-23 18:02 -36.29246 -71.88246 43220 ft 309 kts
2026-04-23 18:03 -36.27191 -71.87645 43208 ft 298 kts
2026-04-23 18:03 -36.25206 -71.87055 43220 ft 288 kts
2026-04-23 18:03 -36.23283 -71.86492 43221 ft 280 kts
2026-04-23 18:03 -36.21417 -71.85941 43222 ft 272 kts
2026-04-23 18:04 -36.19595 -71.85407 43222 ft 266 kts
2026-04-23 18:04 -36.17751 -71.84875 43244 ft 280 kts
2026-04-23 18:04 -36.15796 -71.84311 43255 ft 297 kts
2026-04-23 18:04 -36.13725 -71.83702 43130 ft 318 kts
2026-04-23 18:05 -36.11483 -71.83044 42806 ft 344 kts
2026-04-23 18:05 -36.09109 -71.82344 42364 ft 366 kts
2026-04-23 18:05 -36.06552 -71.81588 41567 ft 390 kts
2026-04-23 18:05 -36.03829 -71.80791 40638 ft 414 kts
2026-04-23 18:06 -36.00989 -71.79951 40262 ft 420 kts
2026-04-23 18:06 -35.95355 -71.78289 40249 ft 412 kts
2026-04-23 18:07 -35.89822 -71.76679 40243 ft 405 kts
2026-04-23 18:07 -35.84362 -71.75081 40236 ft 401 kts
2026-04-23 18:08 -35.79872 -71.73774 40240 ft 397 kts
2026-04-23 18:08 -35.74508 -71.72210 40233 ft 395 kts
2026-04-23 18:09 -35.69181 -71.70661 40226 ft 393 kts
2026-04-23 18:09 -35.63014 -71.68871 40223 ft 391 kts
2026-04-23 18:10 -35.58579 -71.67586 40220 ft 390 kts
2026-04-23 18:10 -35.53309 -71.66058 40218 ft 389 kts
2026-04-23 18:11 -35.48084 -71.64546 40215 ft 388 kts
2026-04-23 18:11 -35.42839 -71.63031 40213 ft 387 kts
2026-04-23 18:12 -35.37595 -71.61515 40209 ft 387 kts
2026-04-23 18:12 -35.32352 -71.60005 40208 ft 387 kts
2026-04-23 18:13 -35.27116 -71.58496 40208 ft 387 kts
2026-04-23 18:13 -35.21874 -71.56991 40208 ft 387 kts
2026-04-23 18:14 -35.16640 -71.55486 40208 ft 386 kts
2026-04-23 18:14 -35.11408 -71.53987 40209 ft 386 kts
2026-04-23 18:15 -35.06179 -71.52488 40204 ft 385 kts
2026-04-23 18:15 -35.00967 -71.50996 40209 ft 384 kts
2026-04-23 18:16 -34.95757 -71.49510 40208 ft 384 kts
2026-04-23 18:16 -34.90548 -71.48023 40208 ft 384 kts
2026-04-23 18:17 -34.82765 -71.45806 40209 ft 384 kts
2026-04-23 18:17 -34.77570 -71.44329 40207 ft 383 kts
2026-04-23 18:18 -34.72382 -71.42854 40207 ft 383 kts
2026-04-23 18:18 -34.67198 -71.41386 40204 ft 382 kts
2026-04-23 18:19 -34.62069 -71.39309 39489 ft 400 kts 14°
2026-04-23 18:19 -34.57025 -71.36801 39213 ft 386 kts 14°
2026-04-23 18:20 -34.54495 -71.35577 38543 ft 398 kts 14°
2026-04-23 18:20 -34.51887 -71.34302 37886 ft 410 kts 15°
2026-04-23 18:20 -34.49211 -71.32976 37226 ft 420 kts 15°
2026-04-23 18:20 -34.46484 -71.31624 36580 ft 427 kts 16°
2026-04-23 18:21 -34.43739 -71.30275 35932 ft 421 kts 15°
2026-04-23 18:21 -34.41049 -71.28955 35278 ft 412 kts 16°
2026-04-23 18:21 -34.38416 -71.27661 34595 ft 406 kts 16°
2026-04-23 18:21 -34.35803 -71.26385 33202 ft 410 kts 16°
2026-04-23 18:22 -34.33085 -71.25073 31516 ft 426 kts 17°
2026-04-23 18:22 -34.30330 -71.23707 29789 ft 434 kts 17°
2026-04-23 18:22 -34.27554 -71.22343 28753 ft 426 kts 17°
2026-04-23 18:22 -34.24853 -71.21021 28255 ft 416 kts 17°
2026-04-23 18:23 -34.23068 -71.20153 27888 ft 419 kts 17°
2026-04-23 18:23 -34.16675 -71.17032 26558 ft 426 kts 18°
2026-04-23 18:24 -34.11166 -71.14348 25411 ft 428 kts 18°
2026-04-23 18:24 -34.08440 -71.13022 24846 ft 427 kts 18°
2026-04-23 18:24 -34.05683 -71.11683 24276 ft 427 kts 18°
2026-04-23 18:25 -34.00198 -71.09016 23143 ft 423 kts 18°
2026-04-23 18:25 -33.97471 -71.07693 22579 ft 421 kts 18°
2026-04-23 18:25 -33.94761 -71.06375 22024 ft 419 kts 18°
2026-04-23 18:25 -33.92070 -71.05068 21466 ft 416 kts 18°
2026-04-23 18:26 -33.89393 -71.03771 20917 ft 413 kts 18°
2026-04-23 18:26 -33.86734 -71.02490 20362 ft 411 kts 18°
2026-04-23 18:26 -33.84096 -71.01201 19818 ft 408 kts 19°
2026-04-23 18:26 -33.81476 -70.99934 19274 ft 405 kts 19°
2026-04-23 18:27 -33.78872 -70.98684 18735 ft 402 kts 19°
2026-04-23 18:27 -33.76313 -70.97453 18205 ft 399 kts 19°
2026-04-23 18:27 -33.73746 -70.96208 17674 ft 396 kts 19°
2026-04-23 18:27 -33.71196 -70.94976 17143 ft 394 kts 19°
2026-04-23 18:28 -33.68661 -70.93753 16618 ft 391 kts 19°
2026-04-23 18:28 -33.66142 -70.92549 16105 ft 389 kts 19°
2026-04-23 18:28 -33.63636 -70.91335 15578 ft 387 kts 19°
2026-04-23 18:28 -33.61139 -70.90138 15066 ft 385 kts 20°
2026-04-23 18:29 -33.58656 -70.88940 14544 ft 384 kts 20°
2026-04-23 18:29 -33.56216 -70.87667 14025 ft 382 kts 26°
2026-04-23 18:29 -33.53982 -70.85951 13520 ft 380 kts 31°
2026-04-23 18:29 -33.51718 -70.84331 13016 ft 378 kts 28°
2026-04-23 18:30 -33.49458 -70.82718 12508 ft 378 kts 30°
2026-04-23 18:30 -33.47234 -70.81060 12005 ft 376 kts 31°
2026-04-23 18:30 -33.45016 -70.79410 11507 ft 374 kts 30°
2026-04-23 18:30 -33.42822 -70.77808 10958 ft 374 kts 30°
2026-04-23 18:31 -33.40596 -70.76182 10413 ft 374 kts 30°
2026-04-23 18:31 -33.38386 -70.74559 9910 ft 372 kts 31°
2026-04-23 18:31 -33.36188 -70.72946 9415 ft 364 kts 31°
2026-04-23 18:31 -33.34129 -70.71432 8965 ft 331 kts 31°
2026-04-23 18:32 -33.32174 -70.70219 8541 ft 304 kts 19°
2026-04-23 18:32 -33.30203 -70.69591 8155 ft 283 kts 10°
2026-04-23 18:32 -33.28306 -70.69424 7796 ft 265 kts 357°
2026-04-23 18:32 -33.26481 -70.69606 7457 ft 264 kts 353°
2026-04-23 18:33 -33.24640 -70.69823 7112 ft 268 kts 353°
2026-04-23 18:33 -33.22883 -70.70036 6777 ft 270 kts 353°
2026-04-23 18:33 -33.21013 -70.70263 6425 ft 270 kts 353°
2026-04-23 18:33 -33.19143 -70.70490 6082 ft 271 kts 353°
2026-04-23 18:34 -33.17301 -70.70719 6042 ft 260 kts 353°
2026-04-23 18:34 -33.15533 -70.70938 6044 ft 252 kts 352°
2026-04-23 18:34 -33.13815 -70.71155 6041 ft 245 kts 353°
2026-04-23 18:34 -33.12170 -70.71502 6039 ft 236 kts 336°
2026-04-23 18:35 -33.10986 -70.72770 6035 ft 230 kts 298°
2026-04-23 18:35 -33.10667 -70.74569 6044 ft 226 kts 264°
2026-04-23 18:35 -33.11275 -70.76259 6046 ft 223 kts 234°
2026-04-23 18:35 -33.12243 -70.77715 5925 ft 228 kts 231°
2026-04-23 18:36 -33.13272 -70.79200 5678 ft 236 kts 230°
2026-04-23 18:36 -33.14348 -70.80704 5434 ft 240 kts 226°
2026-04-23 18:36 -33.15793 -70.81707 5176 ft 245 kts 197°
2026-04-23 18:36 -33.17492 -70.81795 5044 ft 246 kts 170°
2026-04-23 18:37 -33.19035 -70.80990 5037 ft 241 kts 148°
2026-04-23 18:37 -33.20430 -70.79921 5043 ft 235 kts 150°
2026-04-23 18:37 -33.21961 -70.79407 4984 ft 231 kts 180°
2026-04-23 18:37 -33.23628 -70.79432 4485 ft 248 kts 179°
2026-04-23 18:38 -33.25391 -70.79309 3987 ft 259 kts 178°
2026-04-23 18:38 -33.27191 -70.79229 3607 ft 253 kts 179°
2026-04-23 18:38 -33.28907 -70.79147 3261 ft 242 kts 178°
2026-04-23 18:38 -33.30539 -70.79045 2957 ft 228 kts 179°
2026-04-23 18:39 -33.32091 -70.78984 2658 ft 220 kts 177°
2026-04-23 18:39 -33.33582 -70.78872 2370 ft 210 kts 177°
2026-04-23 18:39 -33.35179 -70.78813 2191 ft 269 kts 178°
2026-04-23 18:39 -33.37206 -70.78681 2519 ft 295 kts 176°
2026-04-23 18:40 -33.39281 -70.78584 2787 ft 283 kts 178°
2026-04-23 18:40 -33.41058 -70.78402 2986 ft 237 kts 164°
2026-04-23 18:40 -33.42404 -70.77492 3028 ft 210 kts 146°
2026-04-23 18:40 -33.43416 -70.76362 3029 ft 198 kts 122°
2026-04-23 18:41 -33.43602 -70.74722 3049 ft 215 kts 79°
2026-04-23 18:41 -33.42780 -70.73240 3443 ft 220 kts 38°
2026-04-23 18:41 -33.41385 -70.72513 3824 ft 220 kts 17°
2026-04-23 18:41 -33.39908 -70.71953 4525 ft 222 kts 17°
2026-04-23 18:42 -33.38398 -70.71386 5406 ft 239 kts 16°
2026-04-23 18:42 -33.36720 -70.70779 5930 ft 264 kts 15°
2026-04-23 18:42 -33.34855 -70.70095 6024 ft 289 kts 16°
2026-04-23 18:42 -33.33035 -70.69416 6016 ft 258 kts 16°
2026-04-23 18:43 -33.31354 -70.68787 6012 ft 256 kts 16°
2026-04-23 18:43 -33.29627 -70.68139 6020 ft 263 kts 16°
2026-04-23 18:43 -33.27862 -70.67478 6027 ft 268 kts 17°
2026-04-23 18:43 -33.26055 -70.67267 6013 ft 257 kts 346°
2026-04-23 18:44 -33.24494 -70.68187 6028 ft 247 kts 327°
2026-04-23 18:44 -33.23008 -70.69176 6028 ft 242 kts 332°
2026-04-23 18:44 -33.21451 -70.69890 6029 ft 238 kts 343°
2026-04-23 18:44 -33.19826 -70.70300 6035 ft 251 kts 349°
2026-04-23 18:45 -33.18031 -70.70666 6042 ft 272 kts 352°
2026-04-23 18:45 -33.16087 -70.70855 6058 ft 288 kts 355°
2026-04-23 18:45 -33.14125 -70.71064 6054 ft 273 kts 348°
2026-04-23 18:45 -33.12513 -70.72039 6040 ft 255 kts 314°
2026-04-23 18:46 -33.11671 -70.73803 6042 ft 241 kts 282°
2026-04-23 18:46 -33.11759 -70.75752 5878 ft 238 kts 250°
2026-04-23 18:46 -33.12640 -70.77417 5664 ft 238 kts 232°
2026-04-23 18:46 -33.13675 -70.78955 5463 ft 234 kts 231°
2026-04-23 18:47 -33.14785 -70.80282 5245 ft 221 kts 211°
2026-04-23 18:47 -33.16240 -70.80606 5046 ft 212 kts 171°
2026-04-23 18:47 -33.17478 -70.79787 5033 ft 201 kts 136°
2026-04-23 18:47 -33.18598 -70.78957 5023 ft 187 kts 174°
2026-04-23 18:48 -33.19828 -70.79339 5023 ft 187 kts 213°
2026-04-23 18:48 -33.21024 -70.79892 5016 ft 189 kts 181°
2026-04-23 18:48 -33.22320 -70.79523 4759 ft 197 kts 171°
2026-04-23 18:48 -33.23725 -70.79448 4524 ft 207 kts 178°
2026-04-23 18:49 -33.25189 -70.79318 4287 ft 209 kts 178°
2026-04-23 18:49 -33.26616 -70.79253 4060 ft 199 kts 179°
2026-04-23 18:49 -33.27956 -70.79201 3814 ft 186 kts 179°
2026-04-23 18:49 -33.29158 -70.79115 3552 ft 161 kts 178°
2026-04-23 18:50 -33.29874 -70.79082 3364 ft 150 kts 180°
2026-04-23 18:50 -33.31171 -70.79021 3193 ft 129 kts 178°
2026-04-23 18:50 -33.32080 -70.78947 2939 ft 136 kts 178°
2026-04-23 18:50 -33.33048 -70.78942 2577 ft 137 kts 179°
2026-04-23 18:51 -33.33956 -70.78878 2324 ft 129 kts 176°
2026-04-23 18:51 -33.34748 -70.78842 2244 ft 105 kts 177°
2026-04-23 18:51 -33.35467 -70.78840 1971 ft 106 kts 180°
2026-04-23 18:51 -33.36202 -70.78774 1893 ft 112 kts 176°
2026-04-23 18:52 -33.37007 -70.78716 1746 ft 115 kts 177°
2026-04-23 18:52 -33.37777 -70.78665 1588 ft 106 kts 177°
2026-04-23 18:52 -33.38434 -70.78626 1559 ft 72 kts 178°
2026-04-23 18:52 -33.38800 -70.78605 1559 ft 35 kts 177°
2026-04-23 18:53 -33.38959 -70.78604 1560 ft 21 kts 184°
2026-04-23 18:53 -33.39106 -70.78644 1559 ft 22 kts 204°
2026-04-23 18:53 -33.39244 -70.78724 1559 ft 16 kts 211°
2026-04-23 18:53 -33.39302 -70.78824 1559 ft 16 kts 260°
2026-04-23 18:54 -33.39309 -70.78964 1559 ft 18 kts 266°
2026-04-23 18:54 -33.39314 -70.79118 1559 ft 19 kts 267°
2026-04-23 18:54 -33.39287 -70.79237 1559 ft 14 kts 353°
2026-04-23 18:54 -33.39249 -70.79229 1559 ft 0 kts 41°